Flag for Uruguay Weather past 2 weeks in Canelones, Uruguay

Now
57 °F

Fog.


Feels Like: 56 °F
Forecast: 57 / 71 °F
Wind: 7 mph from Northeast

Location: Carrasco

Current Time: Aug 2, 2014 at 5:53:54 AM

Latest Report: Aug 2, 2014 at 5:00 AM


Visibility: 2 mi

Pressure: 29.80 "Hg

Humidity: 100%

Dew point: 57 °F

Location of CanelonesLocation

Historic Weather in Canelones — Graph

°F

Canelones temperature yesterday

Maximum temperature yesterday: 66 °F (at 3:00 PM)
Minimum temperature yesterday: 57 °F (at 9:00 PM)
Average temperature yesterday: 61 °F

Past Weeks' High & Low Weather Summary

 TemperatureHumidityPressure
High72 °F (Jul 31, 2:00 PM)100% (Jul 18, 6:00 AM)30.42 "Hg (Jul 18, 6:00 AM)
Low32 °F (Jul 27, 7:00 AM)31% (Jul 25, 3:00 PM)29.74 "Hg (Jul 22, 1:42 PM)
Average53 °F76%30.08 "Hg
* Reported Jul 18 5:00 AM — Aug 2 5:00 AM, Canelones, Weather by CustomWeather, © 2014

Note: Actual official high and low records may vary slightly from our data, if they occured in-between our weather recording intervals... More about our weather records

Advertising

Canelones weather history for previous 24 hours

 ConditionsComfort  
Time TempWeatherWind HumidityBarometerVisibility
5:00 AM
Aug 2
57 °FFog.7 mph100%29.80 "Hg2 mi
4:00 AM57 °FFog.8 mph100%29.83 "Hg0 mi
3:00 AM55 °FFog.2 mph94%29.86 "Hg1 mi
2:00 AM55 °FFog.5 mph100%29.86 "Hg1 mi
1:00 AM57 °FFog.3 mph94%29.86 "Hg2 mi
12:00 AM57 °FLight fog.3 mph94%29.89 "Hg4 mi
11:00 PM
Aug 1
57 °FLight fog.3 mph100%29.86 "Hg4 mi
10:00 PM57 °FFog.5 mph94%29.86 "Hg3 mi
9:00 PM57 °FFog.3 mph94%29.86 "Hg3 mi
8:00 PM59 °FFog.3 mph94%29.86 "Hg2 mi
7:00 PM59 °FFog.3 mph94%29.89 "Hg3 mi
6:00 PM61 °FFog.3 mph88%29.89 "Hg2 mi
5:00 PM63 °FClear.5 mph83%29.89 "Hg5 mi
4:00 PM63 °FClear.9 mph88%29.89 "Hg5 mi
3:00 PM66 °FPassing clouds.3 mph78%29.89 "Hg4 mi
2:00 PM63 °FScattered clouds.3 mph83%29.89 "Hg4 mi
1:00 PM63 °FFog.3 mph88%29.92 "Hg2 mi
12:00 PM61 °FMostly cloudy.3 mph94%29.92 "Hg4 mi
11:00 AM59 °FFog.7 mph100%29.92 "Hg1 mi
10:00 AM61 °FFog.6 mph94%29.92 "Hg1 mi
9:00 AM63 °FFog.3 mph94%29.89 "Hg1 mi
8:00 AM61 °FFog.5 mph100%29.89 "Hg1 mi
7:00 AM61 °FFog.5 mph100%29.86 "Hg2 mi
6:00 AM61 °FFog.3 mph100%29.83 "Hg0 mi
5:00 AM61 °FFog.No wind100%29.83 "Hg0 mi
Weather by CustomWeather, © 2014

See weather overviewHow to use our weather pages